Location: Aressy
(43.2833°N, 0.3167°W)
Time: 21:36:34
(UTC+00:00)

Cosmos 372 Rocket - Pass Details

Date: 28 January 2021
Orbit: 738 x 768 km, 74.1° (Epoch: 02 March)

Event Time Altitude Azimuth Distance (km) Brightness Sun altitude
Rises 18:26:46 0° 193° (SSW) 3,195 7.6 -14.4°
Reaches altitude 10° 18:29:07 10° 192° (SSW) 2,279 6.7 -14.9°
Maximum altitude 18:34:16 74° 107° (ESE) 795 3.9 -15.8°
Drops below altitude 10° 18:39:30 10° 24° (NNE) 2,312 6.2 -16.7°
Enters shadow 18:39:58 - 23° (NNE) 2,491 6.3 -16.8°
